Location: Unspecified
(0.0000°N, 0.0000°E)
Time: 15:47:00
(UTC+00:00)

BB 1 - Visible Passes

Search period start: 12 July 2024 00:00
Search period end: 22 July 2024 00:00
Orbit: 954 x 978 km, 81.0° (Epoch: 12 July)

Date Brightness Start Highest point End Pass type
(mag) Time Alt. Az. Time Alt. Az. Time Alt. Az.
12 Jul ? 05:23:42 10° ESE 05:26:32 13° E 05:29:21 10° ENE visible
12 Jul ? 18:24:01 10° N 18:30:15 75° E 18:36:31 10° S visible
13 Jul ? 18:46:43 10° NNW 18:52:46 54° W 18:58:51 10° S visible
14 Jul ? 19:10:16 10° NW 19:15:16 26° W 19:20:20 10° SSW visible
15 Jul ? 19:35:59 10° WNW 19:37:50 11° W 19:39:40 10° WSW visible
16 Jul ? 05:07:03 10° SE 05:11:28 21° E 05:15:51 10° NE visible
17 Jul ? 05:28:11 10° SSE 05:33:59 43° E 05:39:45 10° NNE visible
17 Jul ? 18:32:03 10° NNW 18:37:43 36° W 18:43:23 10° SSW visible
18 Jul ? 18:56:20 10° NW 19:00:14 17° W 19:04:09 10° SW visible
19 Jul ? 04:30:53 10° SE 04:33:52 14° E 04:36:51 10° ENE visible
20 Jul ? 04:51:06 10° SSE 04:56:24 30° E 05:01:40 10° NE visible
21 Jul ? 05:12:49 10° S 05:18:54 64° E 05:24:59 10° NNE visible
